Regional Weather Roundup
Issued by NWS

Home | Current Version | Previous Version | Text Only | Print | Product List | Glossary On
Versions: 1 2 3 4 5 6 7 8 9 10 11 12 13 14 15 16 17 18 19 20 21 22 23 24 25 26 27 28 29 30 31 32 33 34 35 36 37 38 39 40 41 42 43 44 45 46 47 48 49 50
000
ASMX46 KSGX 022211
RWRMX

MEXICAN WEATHER ROUNDUP
NATIONAL WEATHER SERVICE SAN DIEGO CA
300 PM PDT MON MAY 02 2016

BAJA CALIFORNIA

CITY           SKY/WX    TMP DP  RH WIND       PRES   REMARKS
ENSENADA NW      N/A     65  32  29 W8        29.96F
LA PAZ         SUNNY     82  50  32 N10       29.88F
LORETO         SUNNY     79  63  57 NE14      29.87F
MEXICALI         N/A    N/A N/A N/A MISG        N/A
S.J. DEL CABO  SUNNY     82  61  47 SE12      29.87F
TIJUANA        SUNNY     68  52  56 W12       30.00F

NORTHWESTERN MEXICO

CITY           SKY/WX    TMP DP  RH WIND       PRES   REMARKS
CHIHUAHUA      SUNNY     73  34  23 E15       30.08F
CULIACAN       SUNNY     91  63  38 W14       29.81F
GUAYMAS        SUNNY     81  45  28 W14       29.83F
HERMOSILLO     SUNNY     91  32  12 SW5       29.90F
JUAREZ         SUNNY     66  36  32 SE12      30.05F
LOS MOCHIS     SUNNY     84  48  28 NW20      29.85F
OBREGON        SUNNY     91  32  12 W9        29.81F

NORTHEASTERN MEXICO

CITY           SKY/WX    TMP DP  RH WIND       PRES   REMARKS
MATAMOROS      CLOUDY    75  61  60 N17       29.94S
MONCLOVA         N/A    N/A N/A N/A MISG        N/A
MONTERREY      CLOUDY    68  52  56 NW14G28   30.03S
NUEVO LAREDO   CLOUDY    66  52  59 N15       30.07F
PIEDRAS NEGRAS   N/A    N/A N/A N/A MISG        N/A
REYNOSA        CLOUDY    75  54  46 N7G21     29.96F
SALTILLO       CLOUDY    59  57  94 N6        30.17F FOG
TORREON        SUNNY     88  41  19 NW7       29.95F
VICTORIA       CLOUDY    72  59  64 NW17      29.95R

WESTERN MEXICO

CITY           SKY/WX    TMP DP  RH WIND       PRES   REMARKS
AGUASCALIENTES MOSUNNY   90  14   6 CALM      30.07F
COLIMA         PTSUNNY   86  63  45 W12       29.88F
DURANGO        SUNNY     86  10   6 SE6       30.04F
GUADALAJARA    SUNNY     93  23   8 N15       29.99F
MANZANILLO     MOSUNNY   77  70  78 W23       29.74F
MAZATLAN       SUNNY     82  68  61 W15       29.81F
PTO. VALLARTA  SUNNY     81  70  69 SW14      29.81F
TEPIC          SUNNY     84  64  51 N12       29.95S
URUAPAN        PTSUNNY   82  43  24 SW9       30.04F
ZACATECAS      MOSUNNY   90  28  11 SW23      30.12F

CENTRAL MEXICO

CITY           SKY/WX    TMP DP  RH WIND       PRES   REMARKS
CUERNAVACA     MOSUNNY   99  23   6 SW6       29.90F
LEON           MOSUNNY   93  23   8 NW14      30.10F
MEXICO CITY    PTSUNNY   86  27  11 W7        30.15F
MORELIA        MOSUNNY   91  27   9 S9        30.05F
POZA RICA      MOSUNNY   90  77  66 NE9       29.84S HX 102
PUEBLA         MOSUNNY   84  28  13 S14       30.18F
QUERETARO      MOSUNNY   91  19   7 NW12      30.11F
S. LUIS POTOSI MOSUNNY   86  39  19 NE13      30.06F
TAMPICO        PTSUNNY   86  73  66 NE17      29.84S
TOLUCA         PTSUNNY   82  36  18 S13       30.27F
VERACRUZ       SUNNY     88  75  66 N18       29.78R HX  97

SOUTHERN MEXICO

CITY           SKY/WX    TMP DP  RH WIND       PRES   REMARKS
ACAPULCO       SUNNY     81  72  74 W9        29.81F
B. DE HUATULCO MOSUNNY   86  73  66 S16       29.85S
MINATITLAN     SUNNY     86  77  74 N8        29.72F HX  97
OAXACA         CLOUDY    90  46  22 NE9       30.00F
PTO. ESCONDIDO SUNNY     81  73  78 SW13      29.89F
TAPACHULA      CLOUDY    88  77  70 W12       29.75S HX 100
TUX. GUTIERREZ SUNNY    100  55  22 NW20      29.71F HX  99
VILLAHERMOSA   MOSUNNY   95  81  63 N5        29.74F SMOKE   HX 115
ZIHUATANEJO    MOSUNNY   84  68  58 SW9       29.81F

YUCATAN PENINSULA

CITY           SKY/WX    TMP DP  RH WIND       PRES   REMARKS
CAMPECHE       MOSUNNY   93  77  59 W12G23    29.70F HX 107
CANCUN         MOSUNNY   84  75  74 E13       29.88S
CHETUMAL       MOSUNNY   88  79  74 E15       29.82S HX 102
C. DEL CARMEN  PTSUNNY   93  79  62 N7        29.72F HX 110
COZUMEL        PTSUNNY   82  75  78 SE10      29.86F
MERIDA         MOSUNNY  102  63  27 SE12      29.75F HX 104

$$




USA.gov is the U.S. government's official web portal to all federal, state and local government web resources and services.